Bedford, MA

2:13 AM EDT on June 24, 2018 (GMT -0400)
Hanscom

Weather History for KBED - April, 2013

Change the Weather History Date:

Thursday, April 4, 2013

  Actual Average Record
Temperature  
Mean Temperature 40 °F -  
Max Temperature 55 °F 53 °F 72 °F (1974)
Min Temperature 26 °F 34 °F 20 °F (1962)
Degree Days  
Heating Degree Days 25    
Moisture  
Dew Point 13 °F    
Average Humidity 36    
Maximum Humidity 60    
Minimum Humidity 17    
Precipitation  
Precipitation 0.00 in - - ()
Sea Level Pressure  
Sea Level Pressure 30.20 in    
Wind  
Wind Speed 10 mph (WSW)    
Max Wind Speed 17 mph    
Max Gust Speed 24 mph    
Visibility 10 miles    
Events      
Averages and records for this station are not official NWS values.
T = Trace of Precipitation, MM = Missing Value Source: NWS Daily Summary

Daily Weather History Graph

Daily Weather History Graph

Search for Another Location

Airport or City:

Astronomy

Apr. 04, 2013 Rise Set
Actual Time 6:22 AM EDT 7:14 PM EDT
Civil Twilight 5:53 AM EDT 7:43 PM EDT
Nautical Twilight 5:19 AM EDT 8:17 PM EDT
Astronomical Twilight 4:44 AM EDT 8:52 PM EDT
Moon 2:53 AM EDT (4/4) 1:22 PM EDT (4/4)
Length of Visible Light 13h 49m
Length of Day
12h 52m
Waning Crescent, 34% of the Moon is Illuminated
Apr 4
Waning Crescent
Apr 10
New
Apr 18
First Quarter
Apr 25
Full
May 2
Last Quarter

Hourly Weather History & Observations

Time (EDT) Temp. Windchill Dew Point Humidity Pressure Visibility Wind Dir Wind Speed Gust Speed Precip Events Conditions
12:56 AM 30.9 °F 21.7 °F 12.9 °F 47% 30.21 in 10.0 mi West 11.5 mph 18.4 mph N/A   Clear
1:56 AM 30.0 °F 23.2 °F 12.0 °F 47% 30.23 in 10.0 mi West 6.9 mph - N/A   Clear
2:56 AM 30.0 °F 22.4 °F 12.0 °F 47% 30.23 in 10.0 mi West 8.1 mph - N/A   Clear
3:56 AM 28.9 °F 21.1 °F 12.9 °F 51% 30.23 in 10.0 mi West 8.1 mph - N/A   Clear
4:56 AM 28.0 °F 20.0 °F 12.9 °F 53% 30.25 in 10.0 mi West 8.1 mph - N/A   Clear
5:56 AM 26.1 °F 18.4 °F 14.0 °F 60% 30.28 in 10.0 mi WSW 6.9 mph - N/A   Clear
6:56 AM 28.0 °F 24.2 °F 14.0 °F 56% 30.31 in 10.0 mi WSW 3.5 mph - N/A   Clear
7:56 AM 32.0 °F 24.8 °F 15.1 °F 50% 30.33 in 10.0 mi WSW 8.1 mph - N/A   Clear
8:56 AM 37.0 °F 29.8 °F 14.0 °F 39% 30.33 in 10.0 mi NW 10.4 mph - N/A   Clear
9:56 AM 39.9 °F 33.9 °F 10.0 °F 29% 30.32 in 10.0 mi NW 9.2 mph 18.4 mph N/A   Clear
10:56 AM 43.0 °F 37.2 °F 10.0 °F 26% 30.30 in 10.0 mi West 10.4 mph - N/A   Clear
11:56 AM 45.0 °F 42.6 °F 10.0 °F 24% 30.27 in 10.0 mi Variable 4.6 mph - N/A   Clear
12:56 PM 48.9 °F - 8.1 °F 19% 30.24 in 10.0 mi SW 10.4 mph - N/A   Clear
1:56 PM 51.1 °F - 8.1 °F 18% 30.21 in 10.0 mi SW 12.7 mph - N/A   Partly Cloudy
2:56 PM 53.1 °F - 9.0 °F 17% 30.18 in 10.0 mi WSW 13.8 mph - N/A   Clear
3:56 PM 54.0 °F - 9.0 °F 17% 30.14 in 10.0 mi SW 11.5 mph - N/A   Clear
4:56 PM 53.1 °F - 10.0 °F 18% 30.11 in 10.0 mi WSW 13.8 mph 24.2 mph N/A   Clear
5:56 PM 53.1 °F - 12.9 °F 20% 30.11 in 10.0 mi SW 12.7 mph 20.7 mph N/A   Clear
6:56 PM 50.0 °F - 12.0 °F 22% 30.09 in 10.0 mi SW 8.1 mph - N/A   Clear
7:56 PM 46.9 °F - 17.1 °F 30% 30.10 in 10.0 mi SSW 10.4 mph - N/A   Clear
8:56 PM 45.0 °F 37.6 °F 19.0 °F 36% 30.12 in 10.0 mi SW 17.3 mph 21.9 mph N/A   Clear
9:56 PM 43.0 °F 36.8 °F 21.0 °F 42% 30.11 in 10.0 mi SSW 11.5 mph 23.0 mph N/A   Clear
10:56 PM 41.0 °F 35.2 °F 21.0 °F 45% 30.09 in 10.0 mi SSW 9.2 mph - N/A   Clear
11:56 PM 39.0 °F 32.3 °F 24.1 °F 55% 30.09 in 10.0 mi SSW 10.4 mph - N/A   Clear